Location: *
(55.0747°S, 141.4127°W)
Time: 19:59:41
(UTC+00:00)

Daily predictions for brighter satellites

Satellite Brightness Start Highest point End
(mag) Time Altitude Azimuth Time Altitude Azimuth Time Altitude Azimuth
SL-16 R/B 4.2 12:04:29 10° SE 12:09:45 28° E 12:13:04 18° NE
Cosmos 2279 Rocket 4.3 12:16:00 64° ESE 12:16:00 64° ESE 12:21:43 10° SSE
Cosmos 2297 Rocket 3.6 12:18:27 31° S 12:18:27 31° S 12:22:14 10° SSE
SeaSat 1 3.6 12:14:18 10° ENE 12:18:54 40° SE 12:19:11 39° SE
ATLAS CENTAUR R/B 3.8 12:20:59 20° E 12:20:59 20° E 12:23:03 10° ESE
Cosmos 2219 4.0 12:24:34 47° S 12:24:34 47° S 12:28:45 10° SSE
USA 234 3.2 12:16:57 10° ESE 12:23:30 81° S 12:23:30 81° S
Cosmos 1833 Rocket 4.3 12:25:14 10° SSW 12:30:22 32° SE 12:35:28 10° E
H-2A R/B 2.8 12:34:44 50° S 12:34:44 50° S 12:38:49 10° SSW
Cosmos 2082 Rocket 4.4 12:39:13 10° SSW 12:43:34 22° SSE 12:47:54 10° ESE
Cosmos 2082 4.0 12:46:16 58° S 12:46:16 58° S 12:51:07 10° SSE
Cosmos 2263 Rocket 2.5 12:53:16 57° SSW 12:53:16 57° SSW 12:58:10 10° SSE
In-Cosmos 22 4.5 12:52:36 10° S 12:58:01 62° ESE 13:03:18 10° NNE
Cosmos 1726 4.4 13:02:13 20° SE 13:02:13 20° SE 13:03:27 10° SSE
NOSS 3-3 (A) 3.9 13:01:44 48° SW 13:03:46 88° SE 13:09:39 10° NE
Cosmos 1655 Rocket 4.0 12:57:25 10° S 13:03:54 86° E 13:10:16 10° N
Cosmos 1500 Rocket 4.4 13:04:38 46° ENE 13:05:02 48° E 13:09:17 10° SSE
Cosmos 2266 Rocket 3.9 13:01:29 10° SSW 13:07:57 71° W 13:08:37 65° NW
NOSS 3-3 (C) 3.9 13:08:00 43° SW 13:10:22 90° NW 13:16:12 10° NE
Cosmos 2180 Rocket 4.3 13:09:49 68° NW 13:10:29 75° WSW 13:16:46 10° S
Meteor 1-13 Rocket 4.1 13:05:03 10° SSW 13:10:43 88° ESE 13:16:18 10° NNE
CZ-2C R/B 2.6 13:06:27 10° SSE 13:12:06 79° WSW 13:12:31 74° WNW
Cosmos 1844 4.4 13:10:51 34° NNE 13:13:01 52° ENE 13:18:35 10° SE
ARGOS 3.2 13:12:40 10° NNE 13:18:05 80° ESE 13:23:35 10° SSW
ARIANE 5 R/B 2.4 13:18:23 10° NNE 13:23:34 84° WNW 13:28:44 10° SSW
Cosmos 1269 Rocket 3.9 13:18:52 10° SSW 13:24:17 88° WNW 13:29:39 10° NNE
SL-08 ROCKET BODY 4.3 13:18:37 10° SSW 13:24:33 61° W 13:25:01 59° WNW
Cosmos 2285 Rocket 4.3 13:20:39 10° SSW 13:27:12 71° ESE 13:33:38 10° NE
Meteor 1-14 Rocket 4.2 13:26:16 57° NW 13:27:25 72° WSW 13:33:28 10° SSE
CZ-4C R/B 2.8 13:25:54 42° NW 13:28:57 86° NE 13:35:38 10° SE
Cosmos 2227 Rocket 3.5 13:31:47 25° SW 13:32:30 25° SSW 13:37:12 10° SSE
Sich 1 3.2 13:32:05 44° NNE 13:33:23 71° E 13:37:50 10° SSE
Cosmos 1607 4.4 13:29:09 19° SW 13:33:30 58° SSE 13:39:35 10° ENE
UNK 3.8 13:30:59 10° SSE 13:35:41 78° ENE 13:37:16 41° N
Cosmos 1743 Rocket 3.6 13:37:11 41° N 13:38:40 76° E 13:43:11 10° SSE
Cosmos 1844 Rocket 2.7 13:37:21 40° NNW 13:39:27 83° ENE 13:45:09 10° SE
ERS-1 4.4 13:34:31 10° N 13:39:42 72° WNW 13:45:00 10° SSW
Okean 3 Rocket 4.5 13:42:23 36° SW 13:42:23 36° SW 13:45:36 10° S
NOAA 12 4.0 13:38:52 10° NNE 13:44:10 80° WNW 13:49:33 10° SSW
Cosmos 1125 Rocket 3.8 13:46:54 46° W 13:47:38 49° SW 13:52:53 10° SSE
CENTAUR R/B 2.9 13:44:15 27° NW 13:48:50 74° NE 13:55:19 10° SE
Cosmos 1140 Rocket 3.7 13:44:29 10° SSW 13:49:42 69° ESE 13:54:52 10° NE
COSMOS 2455 3.7 13:50:48 30° WSW 13:52:40 36° SSW 13:58:15 10° SE
Cosmos 1733 3.1 13:51:49 47° N 13:52:46 75° E 13:56:26 10° SSE
SL-16 R/B 2.5 13:47:40 10° SSE 13:53:57 74° WSW 13:58:09 22° NNW
Cosmos 1818 3.6 13:50:27 22° SW 13:54:00 81° SE 13:59:25 10° NE
SeaSat 1 2.5 13:51:25 10° NNE 13:56:15 53° WNW 13:58:55 26° SW
Cosmos 1536 3.2 13:56:49 46° SW 13:56:49 46° SW 14:00:11 10° S
Cosmos 2227 4.4 13:54:39 41° W 13:56:23 55° SW 14:02:05 10° SSE
ATLAS CENTAUR R/B 1.4 13:56:08 56° WNW 13:56:59 75° SW 14:01:23 10° SE
Cosmos 407 Rocket 4.0 13:55:07 10° SSW 14:00:18 61° ESE 14:05:29 10° NE
IRS-1C 4.4 13:57:16 10° N 14:02:22 43° W 14:07:33 10° SSW
Cosmos 2297 Rocket 4.1 14:00:15 14° SW 14:02:44 18° SSW 14:06:35 10° SSE
Meteor 1-11 Rocket 3.7 13:59:06 21° NNW 14:03:02 71° WSW 14:08:54 10° SSE
SL-19 R/B 4.2 13:58:25 10° N 14:03:38 54° WNW 14:09:10 10° SSW
Cosmos 1023 Rocket 4.4 14:00:04 10° SSW 14:05:16 89° E 14:10:25 10° NNE
CZ-2D R/B 3.6 14:02:05 10° N 14:06:25 58° WNW 14:10:48 10° SSW
USA 234 3.3 13:59:55 10° E 14:06:33 81° S 14:10:50 24° WSW
Cosmos 1805 3.6 14:03:11 10° N 14:06:56 62° E 14:10:44 10° SSE
Cosmos 1862 Rocket 3.5 14:05:51 10° SSW 14:10:26 86° W 14:14:59 10° N
PSLV R/B 3.4 14:07:15 10° NNE 14:11:26 88° WNW 14:15:42 10° SSW
Cosmos 2150 Rocket 4.3 14:10:39 33° WNW 14:12:50 51° SW 14:18:15 10° SSE
H-2A R/B 3.6 14:15:19 20° WSW 14:15:19 20° WSW 14:17:41 10° SW
Cosmos 2298 Rocket 4.3 14:11:16 33° WNW 14:13:20 50° SW 14:18:36 10° SSE
Cosmos 1833 Rocket 2.6 14:09:09 10° SW 14:14:53 78° WNW 14:20:34 10° NNE
SMAP 3.6 14:10:38 10° NNE 14:15:17 62° ESE 14:20:00 10° S
ATLAS 5 CENTAUR R/B 2.2 14:15:49 26° S 14:15:49 26° S 14:17:33 10° SE
SL-08 RB Rocket 3.9 14:15:59 10° N 14:20:22 45° W 14:24:46 10° SSW
SJ-12 4.1 14:16:37 10° N 14:20:30 45° W 14:24:26 10° SSW
SL-08 R/B 4.4 14:14:23 10° SSW 14:20:38 74° W 14:26:53 10° N
Meteor 2-9 Rocket 4.3 14:14:57 10° NNW 14:20:48 69° WSW 14:26:46 10° SSE
Okean 1-7 3.3 14:21:39 10° S 14:26:06 71° ESE 14:30:25 10° NNE
Cosmos 1408 Rocket 4.5 14:25:36 28° W 14:26:09 29° WSW 14:30:08 10° S
Cosmos 1553 Rocket 4.0 14:21:37 10° N 14:27:44 88° ENE 14:33:57 10° SSE
Cosmos 1709 Rocket 4.5 14:22:12 10° S 14:28:33 65° ESE 14:34:44 10° NNE
Cosmos 2082 Rocket 2.9 14:23:17 10° SSW 14:28:54 56° SE 14:34:27 10° NE
Cosmos 1470 Rocket 4.4 14:27:31 10° N 14:31:57 56° E 14:36:26 10° SSE
Cosmos 1315 Rocket 4.5 14:29:37 10° S 14:33:29 37° ESE 14:37:16 10° NE
Cosmos 1726 3.7 14:35:03 17° SW 14:35:03 17° SW 14:36:28 10° SSW
Cosmos 2263 Rocket 3.6 14:34:57 17° WSW 14:37:35 23° SSW 14:42:04 10° SSE
SJ 16-02 4.1 14:36:06 10° S 14:37:54 12° SSE 14:39:42 10° ESE
Cosmos 2228 Rocket 3.7 14:34:50 10° SSW 14:39:08 37° W 14:43:22 10° NNW
Cosmos 2251 Rocket 3.5 14:33:51 10° SSW 14:39:19 79° WNW 14:44:42 10° NNE
Cosmos 2278 Rocket 4.1 14:35:16 10° NNE 14:40:14 32° ENE 14:45:14 10° SE
Cosmos 1400 Rocket 2.9 14:37:03 10° SSW 14:40:50 49° W 14:44:32 10° N
Cosmos 1707 Rocket 4.0 14:37:36 10° SSW 14:41:48 39° W 14:45:57 10° NNW
Cosmos 1805 Rocket 4.3 14:40:07 22° WNW 14:42:06 31° WSW 14:46:08 10° S
Okean 2 3.4 14:39:00 10° SSW 14:43:10 87° E 14:47:18 10° NNE
Cosmos 1666 Rocket 3.5 14:41:05 10° NNW 14:45:28 66° WSW 14:49:54 10° S
Cosmos 1975 2.8 14:41:44 10° NNW 14:45:43 64° WSW 14:49:46 10° S
Cosmos 1766 3.9 14:42:07 10° N 14:45:51 57° E 14:49:40 10° SSE
CZ-4B R/B 4.0 14:47:30 10° NNE 14:51:29 74° ESE 14:55:22 10° SSW
CZ-2C R/B 4.1 14:47:33 10° S 14:51:37 21° SW 14:54:00 16° W
SL-14 R/B 4.0 14:52:11 10° SSW 14:55:36 29° W 14:59:00 10° NNW
Timation 2 Rocket 4.0 14:50:58 10° NW 14:56:55 61° SW 15:03:00 10° SSE
Cosmos 1844 4.2 14:52:46 15° WNW 14:57:19 44° SW 15:02:48 10° SSE
CZ-2D R/B 3.9 14:54:14 10° NNW 14:57:35 31° W 15:00:59 10° SSW
NOSS 3-2 (A) 4.1 14:49:15 10° NW 14:57:58 79° SW 15:05:15 10° SE
ARGOS 4.3 14:54:54 10° NW 14:58:59 22° W 15:03:08 10° SW
Cosmos 1933 Rocket 4.4 14:54:53 10° N 14:59:10 56° E 15:03:32 10° SSE
Cosmos 1340 2.4 14:58:59 10° NNW 15:02:29 68° WSW 15:06:03 10° S
ARIANE 5 R/B 3.9 15:00:09 10° NW 15:03:24 17° W 15:06:39 10° SW
Cosmos 1190 Rocket 4.0 15:01:50 10° SSW 15:07:10 78° WNW 15:12:24 10° NNE
Cosmos 1745 Rocket 4.1 15:00:56 10° SSW 15:07:13 57° W 15:13:22 10° N
Sich 1 4.5 15:08:53 13° W 15:11:22 20° WSW 15:14:40 10° SSW
Okean 3 4.2 15:09:10 10° SSW 15:12:58 31° W 15:16:44 10° NNW
DMSP B5D2-2 4.2 15:08:00 10° S 15:13:16 58° WSW 15:18:28 10° NW
CORIOLIS 4.3 15:08:20 10° N 15:13:40 52° W 15:19:03 10° SSW
USA 238 DEB 4.4 15:08:57 10° NNW 15:16:39 65° NE 15:23:49 10° SE
USA 238 4.4 15:09:04 10° NNW 15:16:47 65° NE 15:23:57 10° SE
CZ-4C R/B 3.1 15:11:01 12° W 15:18:03 49° SSW 15:24:00 10° SE
Cosmos 2227 Rocket 4.2 15:15:07 10° SW 15:18:38 16° S 15:22:09 10° SE
Helios 1B rocket 2.5 15:14:47 10° N 15:18:41 51° W 15:22:37 10° SSW
APEX 2.5 15:16:47 10° SSW 15:19:28 73° SE 15:22:20 10° NE
NOAA 6 4.3 15:14:34 10° NNE 15:19:47 77° ESE 15:25:05 10° SSW
Cosmos 1607 4.2 15:14:51 10° SW 15:20:43 49° NW 15:26:37 10° NNE
Meteor 1-31 Rocket 2.8 15:18:01 10° N 15:21:43 55° W 15:25:27 10° SSW
Cosmos 1356 Rocket 4.2 15:19:47 10° SSW 15:23:37 32° W 15:27:22 10° NNW
Cosmos 1844 Rocket 3.6 15:19:02 10° W 15:23:59 31° SW 15:29:00 10° SSE
Cosmos 1633 Rocket 3.6 15:20:15 10° NW 15:24:24 37° WSW 15:28:38 10° S
Cosmos 1954 Rocket 4.0 15:19:33 10° SSW 15:24:49 75° WNW 15:30:00 10° NNE
Okean O Rocket 4.4 15:23:31 10° E 15:26:12 16° SE 15:28:54 10° SSE
SAR-Lupe-2 3.6 15:24:12 10° N 15:27:48 60° WNW 15:31:27 10° SSW
COSMOS 2406 3.2 15:22:17 10° SW 15:28:03 80° WNW 15:33:46 10° NNE
Aureole 2 4.4 15:25:18 10° NNW 15:28:13 70° ENE 15:31:17 10° SSE
SL-23 DEB 4.4 15:25:10 10° WNW 15:28:30 53° N 15:33:19 10° ENE
ADEOS Rocket 4.1 15:20:46 10° NNE 15:28:30 69° ESE 15:36:13 10° SSW
Cosmos 2242 Rocket 3.8 15:25:29 10° SSW 15:30:11 86° ESE 15:34:48 10° NNE
Resurs 01 Rocket 4.3 15:28:04 10° E 15:30:56 17° SE 15:33:49 10° SSE
CZ-2C R/B 3.3 15:28:49 10° NNW 15:32:09 33° W 15:35:28 10° SSW
YAOGAN 1 3.3 15:29:29 10° NNE 15:33:46 58° ESE 15:38:06 10° S
SeaSat 1 4.3 15:33:39 10° WNW 15:34:46 11° W 15:35:53 10° W
YAOGAN 11 4.1 15:30:24 10° SSE 15:34:47 77° WSW 15:39:09 10° NNW
ATLAS CENTAUR R/B 2.7 15:31:34 10° W 15:35:25 29° SSW 15:39:14 10° SE
SL-16 R/B 3.7 15:32:01 10° S 15:36:39 22° SW 15:41:16 10° W
Cosmos 1703 Rocket 4.1 15:33:04 10° SSW 15:37:17 39° W 15:41:26 10° NNW
CENTAUR R/B 3.0 15:32:35 10° W 15:39:51 52° SSW 15:45:45 10° SE
COSMOS 2455 4.3 15:35:11 10° SW 15:40:14 26° S 15:45:16 10° ESE
COSMO-SKYMED 1 3.2 15:35:56 10° SSE 15:40:23 66° ENE 15:44:46 10° N
S3M 4.2 15:34:07 10° NNW 15:40:25 57° WSW 15:46:50 10° S
Cosmos 407 Rocket 4.4 15:37:33 10° SW 15:41:56 28° W 15:46:18 10° NNW
Cosmos 1943 Rocket 3.3 15:37:22 10° N 15:42:47 51° ENE 15:48:13 10° SE
